Home > Time Zones > World Clock > Weather > India > Moga > Past weeks

Flag Weather past 2 weeks in Moga, Punjab, India

Now
68 °F

Fog.


Feels Like: 68 °F
Forecast: 55 / 81 °F
Wind: No wind

Location: Amritsar Airport

Current Time: Nov 27, 2014 at 11:40:51 AM

Latest Report: Nov 27, 2014 at 11:00 AM


Visibility: 1 mi

Pressure: 29.95 "Hg

Humidity: 69%

Dew point: 57 °F

Location of MogaLocation

Historic Weather in Moga — Graph

°F

Moga temperature yesterday

Maximum temperature yesterday: 75 °F (at 2:30 PM)
Minimum temperature yesterday: 45 °F (at 7:30 AM)
Average temperature yesterday: 57 °F

Past Weeks' High & Low Weather Summary

 TemperatureHumidityPressure
High81 °F (Nov 12, 2:00 PM)100% (Nov 13, 5:00 AM)30.12 "Hg (Nov 13, 5:00 AM)
Low45 °F (Nov 25, 6:30 AM)23% (Nov 13, 2:30 PM)29.80 "Hg (Nov 26, 4:30 PM)
Average61 °F69%29.99 "Hg
* Reported Nov 12 10:30 AM — Nov 27 10:00 AM, Moga, Weather by CustomWeather, © 2014

Note: Actual official high and low records may vary slightly from our data, if they occured in-between our weather recording intervals... More about our weather records

Advertising

Moga weather history for previous 24 hours

 ConditionsComfort  
Time TempWeatherWind HumidityBarometerVisibility
10:00 AM
Nov 27
63 °FFog.No wind83%29.92 "Hg1 mi
9:30 AM61 °FFog.No wind83%29.95 "Hg1 mi
9:00 AM57 °FFog.No wind88%29.92 "Hg1 mi
8:30 AM54 °FFog.No wind94%29.89 "Hg1 mi
7:30 AM50 °FFog.No wind94%29.86 "Hg1 mi
7:00 AM48 °FFog.No wind100%29.86 "Hg1 mi
6:00 AM48 °FFog.No wind100%29.83 "Hg1 mi
5:30 AM48 °FFog.No wind100%29.83 "Hg1 mi
5:00 AM48 °FFog.No wind100%29.83 "Hg1 mi
4:30 AM50 °FFog.No wind100%29.83 "Hg1 mi
4:00 AM48 °FFog.No wind100%29.83 "Hg1 mi
3:30 AM50 °FFog.No wind100%29.83 "Hg1 mi
3:00 AM50 °FFog.No wind100%29.83 "Hg1 mi
2:30 AM50 °FFog.No wind100%29.83 "Hg1 mi
2:00 AM52 °FFog.No wind94%29.83 "Hg1 mi
1:30 AM52 °FFog.No wind100%29.83 "Hg1 mi
1:00 AM52 °FFog.No wind88%29.83 "Hg1 mi
12:30 AM54 °FFog.No wind94%29.83 "Hg1 mi
12:00 AM54 °FFog.No wind88%29.86 "Hg1 mi
11:30 PM
Nov 26
54 °FFog.No wind88%29.86 "Hg1 mi
11:00 PM54 °FFog.No wind88%29.86 "Hg1 mi
10:00 PM55 °FFog.No wind82%29.86 "Hg1 mi
9:30 PM57 °FFog.No wind82%29.86 "Hg1 mi
9:00 PM55 °FFog.No wind88%29.86 "Hg1 mi
8:30 PM57 °FFog.No wind82%29.86 "Hg1 mi
8:00 PM57 °FFog.No wind82%29.86 "Hg1 mi
7:30 PM59 °FFog.No wind77%29.83 "Hg1 mi
7:00 PM63 °FHaze.No wind64%29.83 "Hg1 mi
6:00 PM64 °FHaze.No wind60%29.83 "Hg1 mi
5:30 PM68 °FHaze.No wind46%29.83 "Hg1 mi
4:30 PM73 °FHaze.No wind38%29.80 "Hg1 mi
4:00 PM75 °FHaze.7 mph39%29.83 "Hg1 mi
3:30 PM75 °FHaze.7 mph39%29.83 "Hg2 mi
3:00 PM75 °FHaze.7 mph36%29.83 "Hg2 mi
2:30 PM75 °FHaze.8 mph39%29.83 "Hg2 mi
1:00 PM73 °FHaze.7 mph36%29.89 "Hg2 mi
12:30 PM72 °FHaze.5 mph38%29.89 "Hg2 mi
12:00 PM70 °FHaze.6 mph40%29.92 "Hg2 mi
11:30 AM70 °FHaze.3 mph38%29.92 "Hg2 mi
Weather by CustomWeather, © 2014

See weather overviewHow to use our weather pages